Time,TemperatureF,DewpointF,PressureIn,WindDirection,WindDirectionDegrees,WindSpeedMPH,WindSpeedGustMPH,Humidity,HourlyPrecipIn,Conditions,Clouds,dailyrainin,SoftwareType,DateUTC
2013-01-18 00:01:00,31.5,30.5,30.23,SW,217,0.0,0.0,96,0.00,,,0.00,WeatherCatV1.10B1784,2013-01-18 05:01:00,
2013-01-18 00:06:00,31.4,30.4,30.24,SSW,192,0.0,0.0,96,0.00,,,0.00,WeatherCatV1.10B1784,2013-01-18 05:06:00,
2013-01-18 00:11:00,31.3,30.0,30.24,SW,218,0.0,0.0,95,0.00,,,0.00,WeatherCatV1.10B1784,2013-01-18 05:11:00,
2013-01-18 00:16:00,31.2,29.9,30.25,SSW,207,0.0,0.0,95,0.00,,,0.00,WeatherCatV1.10B1784,2013-01-18 05:16:00,
2013-01-18 00:21:00,31.1,29.6,30.25,SW,232,0.0,0.0,94,0.00,,,0.00,WeatherCatV1.10B1784,2013-01-18 05:21:00,
2013-01-18 00:26:00,31.1,29.8,30.26,SSE,151,0.0,0.0,95,0.00,,,0.00,WeatherCatV1.10B1784,2013-01-18 05:26:00,
2013-01-18 00:31:00,31.0,29.7,30.26,SW,236,0.0,0.0,95,0.00,,,0.00,WeatherCatV1.10B1784,2013-01-18 05:31:00,
2013-01-18 00:36:00,31.0,29.7,30.26,WSW,251,0.0,0.0,95,0.00,,,0.00,WeatherCatV1.10B1784,2013-01-18 05:36:00,
2013-01-18 00:41:00,30.9,29.6,30.26,South,182,0.0,0.0,95,0.00,,,0.00,WeatherCatV1.10B1784,2013-01-18 05:41:00,
2013-01-18 00:46:00,30.8,29.5,30.26,SSW,192,0.0,0.0,95,0.00,,,0.00,WeatherCatV1.10B1784,2013-01-18 05:46:00,
2013-01-18 00:51:00,30.7,29.2,30.26,SE,146,0.0,0.0,94,0.00,,,0.00,WeatherCatV1.10B1784,2013-01-18 05:51:00,
2013-01-18 00:56:00,30.6,29.1,30.26,SSE,152,0.0,0.0,94,0.00,,,0.00,WeatherCatV1.10B1784,2013-01-18 05:56:00,
2013-01-18 01:01:00,30.5,29.0,30.26,SSW,204,0.0,0.0,94,0.00,,,0.00,WeatherCatV1.10B1784,2013-01-18 06:01:00,
2013-01-18 01:06:00,30.4,28.9,30.27,South,186,0.0,0.0,94,0.00,,,0.00,WeatherCatV1.10B1784,2013-01-18 06:06:00,
2013-01-18 01:11:00,30.3,28.8,30.27,SE,144,0.0,0.0,94,0.00,,,0.00,WeatherCatV1.10B1784,2013-01-18 06:11:00,
2013-01-18 01:16:00,30.2,28.7,30.27,SW,224,0.0,0.0,94,0.00,,,0.00,WeatherCatV1.10B1784,2013-01-18 06:16:00,
2013-01-18 01:21:00,30.2,28.9,30.27,SSW,205,0.0,0.0,95,0.00,,,0.00,WeatherCatV1.10B1784,2013-01-18 06:21:00,
2013-01-18 01:26:00,30.1,28.6,30.27,SE,141,0.0,0.0,94,0.00,,,0.00,WeatherCatV1.10B1784,2013-01-18 06:26:00,
2013-01-18 01:31:00,30.0,28.5,30.28,SSW,194,0.0,0.0,94,0.00,,,0.00,WeatherCatV1.10B1784,2013-01-18 06:31:00,
2013-01-18 01:36:00,29.9,28.4,30.28,SSW,198,0.0,0.0,94,0.00,,,0.00,WeatherCatV1.10B1784,2013-01-18 06:36:00,
2013-01-18 01:41:00,29.8,28.3,30.28,South,180,0.0,0.0,94,0.00,,,0.00,WeatherCatV1.10B1784,2013-01-18 06:41:00,
2013-01-18 01:46:00,29.8,28.3,30.28,South,174,0.0,0.0,94,0.00,,,0.00,WeatherCatV1.10B1784,2013-01-18 06:46:00,
2013-01-18 01:51:00,29.7,28.2,30.28,SSW,202,0.0,0.0,94,0.00,,,0.00,WeatherCatV1.10B1784,2013-01-18 06:51:00,
2013-01-18 01:56:00,29.6,28.1,30.29,South,169,0.0,0.0,94,0.00,,,0.00,WeatherCatV1.10B1784,2013-01-18 06:56:00,
2013-01-18 02:01:00,29.6,28.1,30.29,South,178,0.0,0.0,94,0.00,,,0.00,WeatherCatV1.10B1784,2013-01-18 07:01:00,
2013-01-18 02:06:00,29.5,28.0,30.30,South,175,0.0,0.0,94,0.00,,,0.00,WeatherCatV1.10B1784,2013-01-18 07:06:00,
2013-01-18 02:11:00,29.5,28.0,30.30,South,182,0.0,0.0,94,0.00,,,0.00,WeatherCatV1.10B1784,2013-01-18 07:11:00,
2013-01-18 02:16:00,29.4,27.9,30.30,South,171,0.0,0.0,94,0.00,,,0.00,WeatherCatV1.10B1784,2013-01-18 07:16:00,
2013-01-18 02:21:00,29.3,27.8,30.30,South,186,0.0,0.0,94,0.00,,,0.00,WeatherCatV1.10B1784,2013-01-18 07:21:00,
2013-01-18 02:26:00,29.2,27.7,30.30,SSE,159,0.0,0.0,94,0.00,,,0.00,WeatherCatV1.10B1784,2013-01-18 07:26:00,
2013-01-18 02:31:00,29.2,27.7,30.30,SSW,204,0.0,0.0,94,0.00,,,0.00,WeatherCatV1.10B1784,2013-01-18 07:31:00,
2013-01-18 02:36:00,29.2,27.7,30.30,SSW,194,0.0,0.0,94,0.00,,,0.00,WeatherCatV1.10B1784,2013-01-18 07:36:00,
2013-01-18 02:41:00,29.1,27.6,30.31,South,174,0.0,0.0,94,0.00,,,0.00,WeatherCatV1.10B1784,2013-01-18 07:41:00,
2013-01-18 02:46:00,29.0,27.5,30.30,SSW,192,0.0,0.0,94,0.00,,,0.00,WeatherCatV1.10B1784,2013-01-18 07:46:00,
2013-01-18 02:51:00,28.9,27.4,30.31,SW,214,0.0,0.0,94,0.00,,,0.00,WeatherCatV1.10B1784,2013-01-18 07:51:00,
2013-01-18 02:56:00,28.9,27.4,30.31,SE,132,0.0,0.0,94,0.00,,,0.00,WeatherCatV1.10B1784,2013-01-18 07:56:00,
2013-01-18 03:01:00,28.9,27.4,30.31,SSW,200,0.0,0.0,94,0.00,,,0.00,WeatherCatV1.10B1784,2013-01-18 08:01:00,
2013-01-18 03:06:00,28.8,27.3,30.31,South,175,0.0,0.0,94,0.00,,,0.00,WeatherCatV1.10B1784,2013-01-18 08:06:00,
2013-01-18 03:11:00,28.8,27.3,30.31,South,188,0.0,0.0,94,0.00,,,0.00,WeatherCatV1.10B1784,2013-01-18 08:11:00,
2013-01-18 03:16:00,28.7,26.9,30.30,SW,215,0.0,0.0,93,0.00,,,0.00,WeatherCatV1.10B1784,2013-01-18 08:16:00,
2013-01-18 03:21:00,28.7,27.2,30.30,South,171,0.0,0.0,94,0.00,,,0.00,WeatherCatV1.10B1784,2013-01-18 08:21:00,
2013-01-18 03:26:00,28.6,27.1,30.31,SSW,198,0.0,0.0,94,0.00,,,0.00,WeatherCatV1.10B1784,2013-01-18 08:26:00,
2013-01-18 03:31:00,28.6,27.1,30.31,WSW,246,0.0,0.0,94,0.00,,,0.00,WeatherCatV1.10B1784,2013-01-18 08:31:00,
2013-01-18 03:36:00,28.5,26.7,30.30,SSW,212,0.0,0.0,93,0.00,,,0.00,WeatherCatV1.10B1784,2013-01-18 08:36:00,
2013-01-18 03:41:00,28.5,26.7,30.31,SSE,150,0.0,0.0,93,0.00,,,0.00,WeatherCatV1.10B1784,2013-01-18 08:41:00,
2013-01-18 03:46:00,28.4,26.6,30.31,SE,146,0.0,0.0,93,0.00,,,0.00,WeatherCatV1.10B1784,2013-01-18 08:46:00,
2013-01-18 03:51:00,28.4,26.9,30.31,SSW,202,0.0,0.0,94,0.00,,,0.00,WeatherCatV1.10B1784,2013-01-18 08:51:00,
2013-01-18 03:56:00,28.4,26.6,30.31,SSW,206,0.0,0.0,93,0.00,,,0.00,WeatherCatV1.10B1784,2013-01-18 08:56:00,
2013-01-18 04:01:00,28.3,26.5,30.31,South,170,0.0,0.0,93,0.00,,,0.00,WeatherCatV1.10B1784,2013-01-18 09:01:00,
2013-01-18 04:06:00,28.3,26.5,30.30,SSW,201,0.0,0.0,93,0.00,,,0.00,WeatherCatV1.10B1784,2013-01-18 09:06:00,
2013-01-18 04:11:00,28.2,26.4,30.31,SW,222,0.0,0.0,93,0.00,,,0.00,WeatherCatV1.10B1784,2013-01-18 09:11:00,
2013-01-18 04:16:00,28.2,26.4,30.31,South,169,0.0,0.0,93,0.00,,,0.00,WeatherCatV1.10B1784,2013-01-18 09:16:00,
2013-01-18 04:21:00,28.1,26.3,30.31,SSW,192,0.0,0.0,93,0.00,,,0.00,WeatherCatV1.10B1784,2013-01-18 09:21:00,
2013-01-18 04:26:00,28.1,26.3,30.31,ENE,67,0.0,0.0,93,0.00,,,0.00,WeatherCatV1.10B1784,2013-01-18 09:26:00,
2013-01-18 04:31:00,28.1,26.3,30.31,SSW,205,0.0,0.0,93,0.00,,,0.00,WeatherCatV1.10B1784,2013-01-18 09:31:00,
2013-01-18 04:36:00,28.0,26.5,30.31,SW,221,0.0,0.0,94,0.00,,,0.00,WeatherCatV1.10B1784,2013-01-18 09:36:00,
2013-01-18 04:41:00,28.0,26.2,30.31,SW,225,0.0,0.0,93,0.00,,,0.00,WeatherCatV1.10B1784,2013-01-18 09:41:00,
2013-01-18 04:46:00,28.0,26.2,30.31,South,178,0.0,0.0,93,0.00,,,0.00,WeatherCatV1.10B1784,2013-01-18 09:46:00,
2013-01-18 04:51:00,28.0,26.2,30.31,South,186,0.0,0.0,93,0.00,,,0.00,WeatherCatV1.10B1784,2013-01-18 09:51:00,
2013-01-18 04:56:00,27.9,26.1,30.31,SSW,207,0.0,0.0,93,0.00,,,0.00,WeatherCatV1.10B1784,2013-01-18 09:56:00,
2013-01-18 05:01:00,27.9,26.1,30.31,SW,218,0.0,0.0,93,0.00,,,0.00,WeatherCatV1.10B1784,2013-01-18 10:01:00,
2013-01-18 05:06:00,27.8,26.0,30.31,South,190,0.0,0.0,93,0.00,,,0.00,WeatherCatV1.10B1784,2013-01-18 10:06:00,
2013-01-18 05:11:00,27.8,26.3,30.31,SSW,193,0.0,0.0,94,0.00,,,0.00,WeatherCatV1.10B1784,2013-01-18 10:11:00,
2013-01-18 05:16:00,27.8,26.0,30.31,SSE,167,0.0,0.0,93,0.00,,,0.00,WeatherCatV1.10B1784,2013-01-18 10:16:00,
2013-01-18 05:21:00,27.6,25.8,30.32,East,99,0.0,0.0,93,0.00,,,0.00,WeatherCatV1.10B1784,2013-01-18 10:21:00,
2013-01-18 05:26:00,27.6,25.8,30.32,SW,223,0.0,0.0,93,0.00,,,0.00,WeatherCatV1.10B1784,2013-01-18 10:26:00,
2013-01-18 05:31:00,27.6,25.8,30.32,SSE,167,0.0,0.0,93,0.00,,,0.00,WeatherCatV1.10B1784,2013-01-18 10:31:00,
2013-01-18 05:36:00,27.6,25.8,30.32,SSE,166,0.0,0.0,93,0.00,,,0.00,WeatherCatV1.10B1784,2013-01-18 10:36:00,
2013-01-18 05:41:00,27.5,25.7,30.32,SSW,206,0.0,0.0,93,0.00,,,0.00,WeatherCatV1.10B1784,2013-01-18 10:41:00,
2013-01-18 05:46:00,27.5,26.0,30.32,SSE,157,0.0,0.0,94,0.00,,,0.00,WeatherCatV1.10B1784,2013-01-18 10:46:00,
2013-01-18 05:51:00,27.5,25.7,30.32,East,90,0.0,0.0,93,0.00,,,0.00,WeatherCatV1.10B1784,2013-01-18 10:51:00,
2013-01-18 05:56:00,27.4,25.6,30.32,South,188,0.0,0.0,93,0.00,,,0.00,WeatherCatV1.10B1784,2013-01-18 10:56:00,
2013-01-18 06:01:00,27.4,25.6,30.33,SE,126,0.0,0.0,93,0.00,,,0.00,WeatherCatV1.10B1784,2013-01-18 11:01:00,
2013-01-18 06:06:00,27.4,25.6,30.33,South,176,0.0,0.0,93,0.00,,,0.00,WeatherCatV1.10B1784,2013-01-18 11:06:00,
2013-01-18 06:11:00,27.3,25.5,30.33,South,184,0.0,0.0,93,0.00,,,0.00,WeatherCatV1.10B1784,2013-01-18 11:11:00,
2013-01-18 06:16:00,27.3,25.5,30.33,SE,128,0.0,0.0,93,0.00,,,0.00,WeatherCatV1.10B1784,2013-01-18 11:16:00,
2013-01-18 06:21:00,27.3,25.5,30.33,South,173,0.0,0.0,93,0.00,,,0.00,WeatherCatV1.10B1784,2013-01-18 11:21:00,
2013-01-18 06:26:00,27.2,25.7,30.33,SE,130,0.0,0.0,94,0.00,,,0.00,WeatherCatV1.10B1784,2013-01-18 11:26:00,
2013-01-18 06:31:00,27.2,25.5,30.33,South,178,0.0,0.0,93,0.00,,,0.00,WeatherCatV1.10B1784,2013-01-18 11:31:00,
2013-01-18 06:36:00,27.1,25.4,30.33,South,189,0.0,0.0,93,0.00,,,0.00,WeatherCatV1.10B1784,2013-01-18 11:36:00,
2013-01-18 06:41:00,27.1,25.4,30.33,SSW,201,0.0,0.0,93,0.00,,,0.00,WeatherCatV1.10B1784,2013-01-18 11:41:00,
2013-01-18 06:46:00,27.1,25.4,30.34,SSW,205,0.0,0.0,93,0.00,,,0.00,WeatherCatV1.10B1784,2013-01-18 11:46:00,
2013-01-18 06:51:00,27.1,25.4,30.34,SE,145,0.0,0.0,93,0.00,,,0.00,WeatherCatV1.10B1784,2013-01-18 11:51:00,
2013-01-18 06:56:00,27.0,25.3,30.34,SSW,209,0.0,0.0,93,0.00,,,0.00,WeatherCatV1.10B1784,2013-01-18 11:56:00,
2013-01-18 07:01:00,27.0,25.3,30.34,South,170,0.0,0.0,93,0.00,,,0.00,WeatherCatV1.10B1784,2013-01-18 12:01:00,
2013-01-18 07:06:00,27.0,25.3,30.34,South,169,0.0,0.0,93,0.00,,,0.00,WeatherCatV1.10B1784,2013-01-18 12:06:00,
2013-01-18 07:11:00,27.0,25.3,30.35,South,181,0.0,0.0,93,0.00,,,0.00,WeatherCatV1.10B1784,2013-01-18 12:11:00,
2013-01-18 07:16:00,27.0,25.3,30.35,SSE,166,0.0,0.0,93,0.00,,,0.00,WeatherCatV1.10B1784,2013-01-18 12:16:00,
2013-01-18 07:21:00,27.0,25.3,30.35,SSW,209,0.0,0.0,93,0.00,,,0.00,WeatherCatV1.10B1784,2013-01-18 12:21:00,
2013-01-18 07:26:00,27.0,25.3,30.35,SW,220,0.0,0.0,93,0.00,,,0.00,WeatherCatV1.10B1784,2013-01-18 12:26:00,
2013-01-18 07:31:00,27.0,25.3,30.36,SSW,193,0.0,0.0,93,0.00,,,0.00,WeatherCatV1.10B1784,2013-01-18 12:31:00,
2013-01-18 07:36:00,27.0,25.5,30.36,SSE,162,0.0,0.0,94,0.00,,,0.00,WeatherCatV1.10B1784,2013-01-18 12:36:00,
2013-01-18 07:41:00,27.0,25.5,30.37,WSW,257,0.0,0.0,94,0.00,,,0.00,WeatherCatV1.10B1784,2013-01-18 12:41:00,
2013-01-18 07:46:00,27.0,25.5,30.37,South,182,0.0,0.0,94,0.00,,,0.00,WeatherCatV1.10B1784,2013-01-18 12:46:00,
2013-01-18 07:56:00,27.1,25.6,30.37,SSW,199,0.0,0.0,94,0.00,,,0.00,WeatherCatV1.10B1784,2013-01-18 12:56:00,
2013-01-18 08:01:00,27.1,25.6,30.38,SW,219,0.0,0.0,94,0.00,,,0.00,WeatherCatV1.10B1784,2013-01-18 13:01:00,
2013-01-18 08:06:00,27.2,25.7,30.38,SSW,212,0.0,0.0,94,0.00,,,0.00,WeatherCatV1.10B1784,2013-01-18 13:06:00,
2013-01-18 08:11:00,27.2,25.7,30.39,SW,231,0.0,0.0,94,0.00,,,0.00,WeatherCatV1.10B1784,2013-01-18 13:11:00,
2013-01-18 08:16:00,27.3,25.8,30.39,SSW,213,0.0,0.0,94,0.00,,,0.00,WeatherCatV1.10B1784,2013-01-18 13:16:00,
2013-01-18 08:21:00,27.4,25.9,30.39,South,171,0.0,0.0,94,0.00,,,0.00,WeatherCatV1.10B1784,2013-01-18 13:21:00,
2013-01-18 08:26:00,27.4,25.9,30.40,South,186,0.0,0.0,94,0.00,,,0.00,WeatherCatV1.10B1784,2013-01-18 13:26:00,
2013-01-18 08:31:00,27.5,25.7,30.40,South,174,0.0,0.0,93,0.00,,,0.00,WeatherCatV1.10B1784,2013-01-18 13:31:00,
2013-01-18 08:36:00,27.5,26.0,30.41,SE,146,0.0,0.0,94,0.00,,,0.00,WeatherCatV1.10B1784,2013-01-18 13:36:00,
2013-01-18 08:41:00,27.6,26.1,30.41,South,169,0.0,0.0,94,0.00,,,0.00,WeatherCatV1.10B1784,2013-01-18 13:41:00,
2013-01-18 08:46:00,27.7,26.2,30.41,SSE,163,0.0,0.0,94,0.00,,,0.00,WeatherCatV1.10B1784,2013-01-18 13:46:00,
2013-01-18 08:51:00,27.8,26.0,30.42,SSW,203,0.0,0.0,93,0.00,,,0.00,WeatherCatV1.10B1784,2013-01-18 13:51:00,
2013-01-18 08:56:00,27.9,26.4,30.42,South,178,0.0,0.0,94,0.00,,,0.00,WeatherCatV1.10B1784,2013-01-18 13:56:00,
2013-01-18 09:01:00,28.0,26.2,30.42,East,81,0.0,0.0,93,0.00,,,0.00,WeatherCatV1.10B1784,2013-01-18 14:01:00,
2013-01-18 09:06:00,28.1,26.3,30.43,SSW,208,0.0,0.0,93,0.00,,,0.00,WeatherCatV1.10B1784,2013-01-18 14:06:00,
2013-01-18 09:11:00,28.2,26.4,30.43,SSW,202,0.0,0.0,93,0.00,,,0.00,WeatherCatV1.10B1784,2013-01-18 14:11:00,
2013-01-18 09:16:00,28.4,26.4,30.43,WSW,257,0.0,0.0,92,0.00,,,0.00,WeatherCatV1.10B1784,2013-01-18 14:16:00,
2013-01-18 09:21:00,28.5,26.5,30.43,South,178,0.0,0.0,92,0.00,,,0.00,WeatherCatV1.10B1784,2013-01-18 14:21:00,
2013-01-18 09:26:00,28.5,26.5,30.44,West,262,0.0,0.0,92,0.00,,,0.00,WeatherCatV1.10B1784,2013-01-18 14:26:00,
2013-01-18 09:31:00,28.7,26.7,30.44,SSW,202,0.0,0.0,92,0.00,,,0.00,WeatherCatV1.10B1784,2013-01-18 14:31:00,
2013-01-18 09:36:00,28.8,26.8,30.45,SW,219,0.0,0.0,92,0.00,,,0.00,WeatherCatV1.10B1784,2013-01-18 14:36:00,
2013-01-18 09:41:00,29.0,26.7,30.45,SW,225,0.0,0.0,91,0.00,,,0.00,WeatherCatV1.10B1784,2013-01-18 14:41:00,
2013-01-18 09:46:00,29.1,26.5,30.45,SE,129,0.0,0.0,90,0.00,,,0.00,WeatherCatV1.10B1784,2013-01-18 14:46:00,
2013-01-18 09:51:00,29.4,26.8,30.46,SSW,192,0.0,0.0,90,0.00,,,0.00,WeatherCatV1.10B1784,2013-01-18 14:51:00,
2013-01-18 09:56:00,29.8,27.5,30.46,SSW,196,2.0,2.0,91,0.00,,,0.00,WeatherCatV1.10B1784,2013-01-18 14:56:00,
2013-01-18 10:01:00,30.2,27.6,30.46,West,278,0.0,2.0,90,0.00,,,0.00,WeatherCatV1.10B1784,2013-01-18 15:01:00,
2013-01-18 10:06:00,30.4,27.8,30.46,SW,221,2.0,3.0,90,0.00,,,0.00,WeatherCatV1.10B1784,2013-01-18 15:06:00,
2013-01-18 10:11:00,30.7,27.9,30.47,NE,39,0.0,5.0,89,0.00,,,0.00,WeatherCatV1.10B1784,2013-01-18 15:11:00,
2013-01-18 10:16:00,31.0,28.1,30.47,SSW,193,3.0,5.0,89,0.00,,,0.00,WeatherCatV1.10B1784,2013-01-18 15:16:00,
2013-01-18 10:21:00,31.2,28.1,30.47,SW,224,4.0,5.0,88,0.00,,,0.00,WeatherCatV1.10B1784,2013-01-18 15:21:00,
2013-01-18 10:26:00,31.4,28.3,30.47,SSW,213,4.0,4.0,88,0.00,,,0.00,WeatherCatV1.10B1784,2013-01-18 15:26:00,
2013-01-18 10:31:00,31.6,28.5,30.47,South,185,3.0,4.0,88,0.00,,,0.00,WeatherCatV1.10B1784,2013-01-18 15:31:00,
2013-01-18 10:36:00,31.9,28.5,30.47,South,174,2.0,3.0,87,0.00,,,0.00,WeatherCatV1.10B1784,2013-01-18 15:36:00,
2013-01-18 10:41:00,31.9,28.5,30.47,SSW,213,2.0,5.0,87,0.00,,,0.00,WeatherCatV1.10B1784,2013-01-18 15:41:00,
2013-01-18 10:46:00,32.2,28.8,30.47,SSW,213,4.0,7.0,87,0.00,,,0.00,WeatherCatV1.10B1784,2013-01-18 15:46:00,
2013-01-18 10:51:00,32.2,28.8,30.47,SSE,157,0.0,3.0,87,0.00,,,0.00,WeatherCatV1.10B1784,2013-01-18 15:51:00,
2013-01-18 10:56:00,32.2,28.5,30.47,SW,217,1.0,4.0,86,0.00,,,0.01,WeatherCatV1.10B1784,2013-01-18 15:56:00,
2013-01-18 11:01:00,32.3,28.0,30.47,SSW,196,0.0,5.0,84,0.00,,,0.01,WeatherCatV1.10B1784,2013-01-18 16:01:00,
2013-01-18 11:06:00,32.6,28.6,30.47,NW,322,1.0,4.0,85,0.00,,,0.01,WeatherCatV1.10B1784,2013-01-18 16:06:00,
2013-01-18 11:11:00,32.8,28.5,30.47,SSE,158,1.0,6.0,84,0.00,,,0.01,WeatherCatV1.10B1784,2013-01-18 16:11:00,
2013-01-18 11:16:00,33.1,28.5,30.47,SW,218,5.0,5.0,83,0.00,,,0.01,WeatherCatV1.10B1784,2013-01-18 16:16:00,
2013-01-18 11:21:00,33.4,28.8,30.47,SSE,155,6.0,9.0,83,0.00,,,0.01,WeatherCatV1.10B1784,2013-01-18 16:21:00,
2013-01-18 11:26:00,33.5,28.0,30.47,South,182,2.0,7.0,80,0.00,,,0.02,WeatherCatV1.10B1784,2013-01-18 16:26:00,
2013-01-18 11:31:00,33.7,28.8,30.47,WSW,252,3.0,3.0,82,0.00,,,0.02,WeatherCatV1.10B1784,2013-01-18 16:31:00,
2013-01-18 11:36:00,34.0,28.5,30.46,SW,221,3.0,4.0,80,0.00,,,0.02,WeatherCatV1.10B1784,2013-01-18 16:36:00,
2013-01-18 11:41:00,34.4,29.2,30.46,WSW,240,1.0,3.0,81,0.00,,,0.02,WeatherCatV1.10B1784,2013-01-18 16:41:00,
2013-01-18 11:46:00,34.8,28.7,30.46,WNW,282,0.0,3.0,78,0.00,,,0.03,WeatherCatV1.10B1784,2013-01-18 16:46:00,
2013-01-18 11:51:00,35.2,28.1,30.46,SW,216,1.0,2.0,75,0.00,,,0.03,WeatherCatV1.10B1784,2013-01-18 16:51:00,
2013-01-18 11:56:00,35.4,29.2,30.46,SE,136,1.0,3.0,78,0.00,,,0.03,WeatherCatV1.10B1784,2013-01-18 16:56:00,
2013-01-18 12:01:00,35.7,29.2,30.45,SSW,193,4.0,4.0,77,0.00,,,0.03,WeatherCatV1.10B1784,2013-01-18 17:01:00,
2013-01-18 12:06:00,36.0,29.5,30.45,SSW,210,2.0,3.0,77,0.00,,,0.03,WeatherCatV1.10B1784,2013-01-18 17:06:00,
2013-01-18 12:11:00,36.3,29.5,30.45,SW,214,3.0,4.0,76,0.00,,,0.03,WeatherCatV1.10B1784,2013-01-18 17:11:00,
2013-01-18 12:16:00,36.7,28.9,30.45,SE,124,1.0,4.0,73,0.00,,,0.03,WeatherCatV1.10B1784,2013-01-18 17:16:00,
2013-01-18 12:21:00,37.0,28.1,30.44,SSW,202,3.0,5.0,70,0.00,,,0.03,WeatherCatV1.10B1784,2013-01-18 17:21:00,
2013-01-18 12:26:00,37.2,28.7,30.44,SE,144,0.0,2.0,71,0.00,,,0.03,WeatherCatV1.10B1784,2013-01-18 17:26:00,
2013-01-18 12:31:00,37.6,28.7,30.44,SE,146,0.0,1.0,70,0.00,,,0.03,WeatherCatV1.10B1784,2013-01-18 17:31:00,
2013-01-18 12:36:00,38.1,27.8,30.44,SW,222,3.0,4.0,66,0.00,,,0.03,WeatherCatV1.10B1784,2013-01-18 17:36:00,
2013-01-18 12:41:00,38.3,27.6,30.43,SSE,167,0.0,2.0,65,0.00,,,0.04,WeatherCatV1.10B1784,2013-01-18 17:41:00,
2013-01-18 12:46:00,38.4,27.7,30.43,South,172,1.0,5.0,65,0.00,,,0.04,WeatherCatV1.10B1784,2013-01-18 17:46:00,
2013-01-18 12:51:00,38.8,29.2,30.43,SSW,195,3.0,3.0,68,0.00,,,0.04,WeatherCatV1.10B1784,2013-01-18 17:51:00,
2013-01-18 12:56:00,39.1,27.6,30.43,SW,216,1.0,4.0,63,0.00,,,0.04,WeatherCatV1.10B1784,2013-01-18 17:56:00,
2013-01-18 13:01:00,39.4,27.5,30.43,WSW,252,1.0,4.0,62,0.00,,,0.04,WeatherCatV1.10B1784,2013-01-18 18:01:00,
2013-01-18 13:06:00,40.0,28.0,30.43,SW,215,2.0,4.0,62,0.00,,,0.04,WeatherCatV1.10B1784,2013-01-18 18:06:00,
2013-01-18 13:11:00,40.4,29.6,30.43,ENE,57,0.0,2.0,65,0.00,,,0.05,WeatherCatV1.10B1784,2013-01-18 18:11:00,
2013-01-18 13:16:00,40.9,28.5,30.43,NW,320,1.0,2.0,61,0.00,,,0.05,WeatherCatV1.10B1784,2013-01-18 18:16:00,
2013-01-18 13:21:00,41.4,29.0,30.43,SSW,212,1.0,3.0,61,0.00,,,0.05,WeatherCatV1.10B1784,2013-01-18 18:21:00,
2013-01-18 13:26:00,41.6,27.5,30.43,NNW,346,2.0,3.0,57,0.00,,,0.05,WeatherCatV1.10B1784,2013-01-18 18:26:00,
2013-01-18 13:31:00,42.2,29.3,30.43,SW,230,0.0,2.0,60,0.00,,,0.05,WeatherCatV1.10B1784,2013-01-18 18:31:00,
2013-01-18 13:36:00,42.3,27.7,30.43,SW,236,4.0,4.0,56,0.00,,,0.05,WeatherCatV1.10B1784,2013-01-18 18:36:00,
2013-01-18 13:41:00,42.3,25.5,30.42,West,261,1.0,4.0,51,0.00,,,0.05,WeatherCatV1.10B1784,2013-01-18 18:41:00,
2013-01-18 13:46:00,42.0,25.7,30.42,WSW,241,2.0,6.0,52,0.00,,,0.05,WeatherCatV1.10B1784,2013-01-18 18:46:00,
2013-01-18 13:51:00,42.0,26.1,30.42,ENE,59,0.0,1.0,53,0.00,,,0.05,WeatherCatV1.10B1784,2013-01-18 18:51:00,
2013-01-18 13:56:00,42.1,28.0,30.42,WSW,252,2.0,3.0,57,0.00,,,0.05,WeatherCatV1.10B1784,2013-01-18 18:56:00,
2013-01-18 14:01:00,42.8,28.2,30.42,SSW,213,4.0,6.0,56,0.00,,,0.06,WeatherCatV1.10B1784,2013-01-18 19:01:00,
2013-01-18 14:06:00,42.6,25.8,30.42,West,265,0.0,4.0,51,0.00,,,0.06,WeatherCatV1.10B1784,2013-01-18 19:06:00,
2013-01-18 14:11:00,42.7,26.3,30.42,SSE,153,3.0,4.0,52,0.00,,,0.06,WeatherCatV1.10B1784,2013-01-18 19:11:00,
2013-01-18 14:16:00,42.7,25.8,30.42,NE,56,1.0,5.0,51,0.00,,,0.06,WeatherCatV1.10B1784,2013-01-18 19:16:00,
2013-01-18 14:21:00,42.8,26.4,30.41,SW,230,1.0,2.0,52,0.00,,,0.06,WeatherCatV1.10B1784,2013-01-18 19:21:00,
2013-01-18 14:26:00,42.9,25.6,30.41,SSW,195,0.0,3.0,50,0.00,,,0.06,WeatherCatV1.10B1784,2013-01-18 19:26:00,
2013-01-18 14:31:00,43.4,27.4,30.41,South,185,1.0,2.0,53,0.00,,,0.06,WeatherCatV1.10B1784,2013-01-18 19:31:00,
2013-01-18 14:36:00,43.7,27.7,30.41,SW,215,3.0,3.0,53,0.00,,,0.06,WeatherCatV1.10B1784,2013-01-18 19:36:00,
2013-01-18 14:46:00,44.3,29.2,30.42,North,9,1.0,2.0,55,0.00,,,0.06,WeatherCatV1.10B1784,2013-01-18 19:46:00,
2013-01-18 14:51:00,44.7,27.7,30.41,SSE,167,1.0,2.0,51,0.00,,,0.06,WeatherCatV1.10B1784,2013-01-18 19:51:00,
2013-01-18 14:56:00,45.1,30.4,30.42,NW,321,0.0,2.0,56,0.00,,,0.06,WeatherCatV1.10B1784,2013-01-18 19:56:00,
2013-01-18 15:01:00,45.7,26.6,30.42,NE,46,0.0,1.0,47,0.00,,,0.07,WeatherCatV1.10B1784,2013-01-18 20:01:00,
2013-01-18 15:06:00,45.8,28.2,30.41,SSW,213,0.0,3.0,50,0.00,,,0.07,WeatherCatV1.10B1784,2013-01-18 20:06:00,
2013-01-18 15:11:00,45.4,28.3,30.41,WNW,297,0.0,1.0,51,0.00,,,0.07,WeatherCatV1.10B1784,2013-01-18 20:11:00,
2013-01-18 15:16:00,46.1,29.0,30.41,SSE,167,1.0,3.0,51,0.00,,,0.07,WeatherCatV1.10B1784,2013-01-18 20:16:00,
2013-01-18 15:21:00,46.1,27.5,30.42,SW,230,2.0,3.0,48,0.00,,,0.07,WeatherCatV1.10B1784,2013-01-18 20:21:00,
2013-01-18 15:26:00,45.9,23.5,30.41,South,175,2.0,3.0,41,0.00,,,0.07,WeatherCatV1.10B1784,2013-01-18 20:26:00,
2013-01-18 15:31:00,45.6,25.0,30.41,SSW,198,0.0,1.0,44,0.00,,,0.07,WeatherCatV1.10B1784,2013-01-18 20:31:00,
2013-01-18 15:36:00,45.4,25.8,30.41,West,261,1.0,1.0,46,0.00,,,0.07,WeatherCatV1.10B1784,2013-01-18 20:36:00,
2013-01-18 15:41:00,45.9,25.8,30.41,SSW,196,2.0,4.0,45,0.00,,,0.08,WeatherCatV1.10B1784,2013-01-18 20:41:00,
2013-01-18 15:46:00,45.6,24.4,30.42,SSE,158,0.0,3.0,43,0.00,,,0.08,WeatherCatV1.10B1784,2013-01-18 20:46:00,
2013-01-18 15:51:00,45.5,24.3,30.42,SW,223,0.0,4.0,43,0.00,,,0.08,WeatherCatV1.10B1784,2013-01-18 20:51:00,
2013-01-18 15:56:00,45.6,24.4,30.42,SSW,206,0.0,4.0,43,0.00,,,0.08,WeatherCatV1.10B1784,2013-01-18 20:56:00,
2013-01-18 16:01:00,45.7,24.5,30.42,SSW,210,2.0,3.0,43,0.00,,,0.08,WeatherCatV1.10B1784,2013-01-18 21:01:00,
2013-01-18 16:06:00,45.6,23.8,30.42,SSE,167,2.0,4.0,42,0.00,,,0.08,WeatherCatV1.10B1784,2013-01-18 21:06:00,
2013-01-18 16:11:00,45.9,26.8,30.42,SSW,213,0.0,1.0,47,0.00,,,0.08,WeatherCatV1.10B1784,2013-01-18 21:11:00,
2013-01-18 16:16:00,46.6,27.5,30.42,SSW,198,0.0,1.0,47,0.00,,,0.08,WeatherCatV1.10B1784,2013-01-18 21:16:00,
2013-01-18 16:21:00,47.4,28.2,30.42,SW,215,1.0,2.0,47,0.00,,,0.08,WeatherCatV1.10B1784,2013-01-18 21:21:00,
2013-01-18 16:26:00,47.7,25.7,30.42,SSE,166,1.0,2.0,42,0.00,,,0.08,WeatherCatV1.10B1784,2013-01-18 21:26:00,
2013-01-18 16:31:00,47.4,24.9,30.42,South,186,0.0,1.0,41,0.00,,,0.08,WeatherCatV1.10B1784,2013-01-18 21:31:00,
2013-01-18 16:36:00,47.0,26.2,30.43,SSW,196,0.0,3.0,44,0.00,,,0.08,WeatherCatV1.10B1784,2013-01-18 21:36:00,
2013-01-18 16:41:00,46.8,25.5,30.43,South,173,0.0,1.0,43,0.00,,,0.08,WeatherCatV1.10B1784,2013-01-18 21:41:00,
2013-01-18 16:46:00,46.4,25.7,30.43,East,98,0.0,3.0,44,0.00,,,0.09,WeatherCatV1.10B1784,2013-01-18 21:46:00,
2013-01-18 16:51:00,45.6,23.8,30.43,NE,51,3.0,5.0,42,0.00,,,0.09,WeatherCatV1.10B1784,2013-01-18 21:51:00,
2013-01-18 16:56:00,45.0,25.5,30.43,East,101,0.0,2.0,46,0.00,,,0.09,WeatherCatV1.10B1784,2013-01-18 21:56:00,
2013-01-18 17:01:00,44.9,27.9,30.43,NNE,19,0.0,1.0,51,0.00,,,0.09,WeatherCatV1.10B1784,2013-01-18 22:01:00,
2013-01-18 17:06:00,44.7,30.8,30.43,NNE,15,0.0,0.0,58,0.00,,,0.09,WeatherCatV1.10B1784,2013-01-18 22:06:00,
2013-01-18 17:11:00,44.4,29.3,30.43,NNE,15,0.0,0.0,55,0.00,,,0.09,WeatherCatV1.10B1784,2013-01-18 22:11:00,
2013-01-18 17:16:00,43.9,30.1,30.43,NE,34,1.0,3.0,58,0.00,,,0.09,WeatherCatV1.10B1784,2013-01-18 22:16:00,
2013-01-18 17:21:00,43.2,29.0,30.43,NNE,22,0.0,2.0,57,0.00,,,0.09,WeatherCatV1.10B1784,2013-01-18 22:21:00,
2013-01-18 17:26:00,42.3,29.4,30.43,NNE,30,1.0,2.0,60,0.00,,,0.09,WeatherCatV1.10B1784,2013-01-18 22:26:00,
2013-01-18 17:31:00,41.5,29.5,30.43,NNE,27,0.0,2.0,62,0.00,,,0.09,WeatherCatV1.10B1784,2013-01-18 22:31:00,
2013-01-18 17:36:00,40.8,28.8,30.43,NNE,20,3.0,3.0,62,0.00,,,0.09,WeatherCatV1.10B1784,2013-01-18 22:36:00,
2013-01-18 17:41:00,40.2,27.0,30.43,NNE,28,2.0,3.0,59,0.00,,,0.09,WeatherCatV1.10B1784,2013-01-18 22:41:00,
2013-01-18 17:46:00,39.7,27.4,30.43,NE,42,0.0,3.0,61,0.00,,,0.09,WeatherCatV1.10B1784,2013-01-18 22:46:00,
2013-01-18 17:51:00,39.3,28.2,30.43,NE,45,2.0,4.0,64,0.00,,,0.09,WeatherCatV1.10B1784,2013-01-18 22:51:00,
2013-01-18 17:56:00,39.0,29.0,30.43,NE,42,0.0,2.0,67,0.00,,,0.09,WeatherCatV1.10B1784,2013-01-18 22:56:00,
2013-01-18 18:01:00,38.7,30.5,30.43,NE,42,0.0,0.0,72,0.00,,,0.09,WeatherCatV1.10B1784,2013-01-18 23:01:00,
2013-01-18 18:06:00,38.3,29.4,30.44,NE,42,0.0,0.0,70,0.00,,,0.09,WeatherCatV1.10B1784,2013-01-18 23:06:00,
2013-01-18 18:11:00,37.8,29.3,30.44,NE,42,0.0,0.0,71,0.00,,,0.09,WeatherCatV1.10B1784,2013-01-18 23:11:00,
2013-01-18 18:16:00,37.5,27.9,30.44,NE,42,1.0,2.0,68,0.00,,,0.09,WeatherCatV1.10B1784,2013-01-18 23:16:00,
2013-01-18 18:21:00,37.2,28.3,30.44,NE,42,1.0,1.0,70,0.00,,,0.09,WeatherCatV1.10B1784,2013-01-18 23:21:00,
2013-01-18 18:26:00,37.0,28.8,30.44,NE,42,0.0,0.0,72,0.00,,,0.09,WeatherCatV1.10B1784,2013-01-18 23:26:00,
2013-01-18 18:31:00,36.9,29.1,30.44,NE,42,0.0,0.0,73,0.00,,,0.09,WeatherCatV1.10B1784,2013-01-18 23:31:00,
2013-01-18 18:36:00,36.8,29.6,30.44,NE,42,0.0,0.0,75,0.00,,,0.09,WeatherCatV1.10B1784,2013-01-18 23:36:00,
2013-01-18 18:41:00,36.7,29.5,30.44,NE,42,0.0,1.0,75,0.00,,,0.09,WeatherCatV1.10B1784,2013-01-18 23:41:00,
2013-01-18 18:46:00,36.5,27.7,30.44,NE,42,0.0,0.0,70,0.00,,,0.09,WeatherCatV1.10B1784,2013-01-18 23:46:00,
2013-01-18 18:51:00,36.5,29.0,30.44,NE,42,0.0,0.0,74,0.00,,,0.09,WeatherCatV1.10B1784,2013-01-18 23:51:00,
2013-01-18 18:56:00,36.3,28.8,30.44,NE,42,0.0,0.0,74,0.00,,,0.09,WeatherCatV1.10B1784,2013-01-18 23:56:00,
2013-01-18 19:01:00,36.2,28.4,30.45,NE,42,0.0,0.0,73,0.00,,,0.09,WeatherCatV1.10B1784,2013-01-19 00:01:00,
2013-01-18 19:06:00,35.9,27.8,30.45,NE,42,0.0,0.0,72,0.00,,,0.09,WeatherCatV1.10B1784,2013-01-19 00:06:00,
2013-01-18 19:11:00,35.8,28.3,30.44,NE,42,0.0,0.0,74,0.00,,,0.09,WeatherCatV1.10B1784,2013-01-19 00:11:00,
2013-01-18 19:16:00,35.7,27.2,30.44,NE,42,0.0,0.0,71,0.00,,,0.09,WeatherCatV1.10B1784,2013-01-19 00:16:00,
2013-01-18 19:21:00,35.7,28.9,30.44,NE,42,0.0,0.0,76,0.00,,,0.09,WeatherCatV1.10B1784,2013-01-19 00:21:00,
2013-01-18 19:26:00,35.7,29.2,30.44,NE,42,0.0,0.0,77,0.00,,,0.09,WeatherCatV1.10B1784,2013-01-19 00:26:00,
2013-01-18 19:31:00,35.6,29.7,30.44,NE,42,0.0,0.0,79,0.00,,,0.09,WeatherCatV1.10B1784,2013-01-19 00:31:00,
2013-01-18 19:36:00,35.4,28.6,30.45,NE,42,0.0,0.0,76,0.00,,,0.09,WeatherCatV1.10B1784,2013-01-19 00:36:00,
2013-01-18 19:41:00,35.1,29.3,30.45,NE,42,0.0,0.0,79,0.00,,,0.09,WeatherCatV1.10B1784,2013-01-19 00:41:00,
2013-01-18 19:46:00,34.8,28.7,30.45,NE,42,0.0,0.0,78,0.00,,,0.09,WeatherCatV1.10B1784,2013-01-19 00:46:00,
2013-01-18 19:51:00,34.5,28.4,30.44,NE,42,0.0,0.0,78,0.00,,,0.09,WeatherCatV1.10B1784,2013-01-19 00:51:00,
2013-01-18 19:56:00,34.3,28.5,30.44,NE,42,0.0,0.0,79,0.00,,,0.09,WeatherCatV1.10B1784,2013-01-19 00:56:00,
2013-01-18 20:01:00,34.1,27.7,30.44,NE,42,0.0,0.0,77,0.00,,,0.09,WeatherCatV1.10B1784,2013-01-19 01:01:00,
2013-01-18 20:06:00,34.0,29.4,30.44,NE,42,0.0,0.0,83,0.00,,,0.09,WeatherCatV1.10B1784,2013-01-19 01:06:00,
2013-01-18 20:11:00,33.9,28.4,30.45,NE,42,0.0,0.0,80,0.00,,,0.09,WeatherCatV1.10B1784,2013-01-19 01:11:00,
2013-01-18 20:16:00,33.7,27.6,30.44,NE,42,0.0,0.0,78,0.00,,,0.09,WeatherCatV1.10B1784,2013-01-19 01:16:00,
2013-01-18 20:21:00,33.5,28.0,30.44,NE,42,0.0,0.0,80,0.00,,,0.09,WeatherCatV1.10B1784,2013-01-19 01:21:00,
2013-01-18 20:26:00,33.5,28.6,30.44,NE,42,0.0,0.0,82,0.00,,,0.09,WeatherCatV1.10B1784,2013-01-19 01:26:00,
2013-01-18 20:31:00,33.5,28.9,30.44,NE,42,0.0,0.0,83,0.00,,,0.09,WeatherCatV1.10B1784,2013-01-19 01:31:00,
2013-01-18 20:36:00,33.5,28.9,30.44,NE,42,0.0,0.0,83,0.00,,,0.09,WeatherCatV1.10B1784,2013-01-19 01:36:00,
2013-01-18 20:41:00,33.4,27.9,30.44,NE,42,0.0,0.0,80,0.00,,,0.09,WeatherCatV1.10B1784,2013-01-19 01:41:00,
2013-01-18 20:46:00,33.4,28.5,30.44,NE,42,0.0,0.0,82,0.00,,,0.09,WeatherCatV1.10B1784,2013-01-19 01:46:00,
2013-01-18 20:51:00,33.4,28.2,30.44,NE,42,0.0,0.0,81,0.00,,,0.09,WeatherCatV1.10B1784,2013-01-19 01:51:00,
2013-01-18 21:01:00,33.3,28.4,30.44,NE,42,0.0,0.0,82,0.00,,,0.09,WeatherCatV1.10B1784,2013-01-19 02:01:00,
2013-01-18 21:06:00,33.3,27.5,30.45,NE,42,0.0,0.0,79,0.00,,,0.09,WeatherCatV1.10B1784,2013-01-19 02:06:00,
2013-01-18 21:11:00,33.5,28.6,30.45,NE,42,0.0,0.0,82,0.00,,,0.09,WeatherCatV1.10B1784,2013-01-19 02:11:00,
2013-01-18 21:16:00,33.6,28.7,30.44,NE,42,0.0,0.0,82,0.00,,,0.09,WeatherCatV1.10B1784,2013-01-19 02:16:00,
2013-01-18 21:21:00,33.6,28.4,30.44,NE,42,0.0,0.0,81,0.00,,,0.09,WeatherCatV1.10B1784,2013-01-19 02:21:00,
2013-01-18 21:26:00,33.7,28.2,30.44,NE,42,0.0,0.0,80,0.00,,,0.09,WeatherCatV1.10B1784,2013-01-19 02:26:00,
2013-01-18 21:36:00,33.7,28.2,30.44,NE,42,0.0,0.0,80,0.00,,,0.09,WeatherCatV1.10B1784,2013-01-19 02:36:00,
2013-01-18 21:46:00,33.7,28.5,30.44,NE,42,0.0,0.0,81,0.00,,,0.09,WeatherCatV1.10B1784,2013-01-19 02:46:00,
2013-01-18 21:56:00,33.7,27.9,30.44,NE,42,0.0,0.0,79,0.00,,,0.09,WeatherCatV1.10B1784,2013-01-19 02:56:00,
2013-01-18 22:01:00,33.8,27.4,30.44,NNW,342,0.0,1.0,77,0.00,,,0.09,WeatherCatV1.10B1784,2013-01-19 03:01:00,
2013-01-18 22:06:00,34.0,28.2,30.44,NNW,342,0.0,0.0,79,0.00,,,0.09,WeatherCatV1.10B1784,2013-01-19 03:06:00,
2013-01-18 22:11:00,34.2,28.1,30.44,NNW,342,0.0,0.0,78,0.00,,,0.09,WeatherCatV1.10B1784,2013-01-19 03:11:00,
2013-01-18 22:21:00,35.0,27.9,30.44,WNW,296,0.0,0.0,75,0.00,,,0.09,WeatherCatV1.10B1784,2013-01-19 03:21:00,
2013-01-18 22:26:00,35.2,27.8,30.44,WNW,296,0.0,0.0,74,0.00,,,0.09,WeatherCatV1.10B1784,2013-01-19 03:26:00,
2013-01-18 22:31:00,35.3,27.9,30.44,NNW,345,1.0,1.0,74,0.00,,,0.09,WeatherCatV1.10B1784,2013-01-19 03:31:00,
2013-01-18 22:36:00,35.3,26.9,30.44,NNW,343,0.0,0.0,71,0.00,,,0.09,WeatherCatV1.10B1784,2013-01-19 03:36:00,
2013-01-18 22:46:00,35.1,28.3,30.44,NNW,343,0.0,0.0,76,0.00,,,0.09,WeatherCatV1.10B1784,2013-01-19 03:46:00,
2013-01-18 22:51:00,34.9,26.5,30.44,North,351,0.0,1.0,71,0.00,,,0.09,WeatherCatV1.10B1784,2013-01-19 03:51:00,
2013-01-18 23:01:00,35.1,26.3,30.43,NNW,345,0.0,0.0,70,0.00,,,0.09,WeatherCatV1.10B1784,2013-01-19 04:01:00,
2013-01-18 23:06:00,35.1,26.7,30.43,NNE,14,1.0,3.0,71,0.00,,,0.09,WeatherCatV1.10B1784,2013-01-19 04:06:00,
2013-01-18 23:16:00,35.5,27.0,30.43,North,0,1.0,2.0,71,0.00,,,0.09,WeatherCatV1.10B1784,2013-01-19 04:16:00,
2013-01-18 23:21:00,35.7,26.9,30.43,NE,44,0.0,3.0,70,0.00,,,0.09,WeatherCatV1.10B1784,2013-01-19 04:21:00,
2013-01-18 23:31:00,35.7,25.8,30.43,NE,40,1.0,2.0,67,0.00,,,0.09,WeatherCatV1.10B1784,2013-01-19 04:31:00,
2013-01-18 23:41:00,36.3,26.4,30.43,NNW,330,0.0,2.0,67,0.00,,,0.09,WeatherCatV1.10B1784,2013-01-19 04:41:00,
2013-01-18 23:46:00,36.4,26.9,30.42,NNW,348,0.0,2.0,68,0.00,,,0.09,WeatherCatV1.10B1784,2013-01-19 04:46:00,
2013-01-18 23:51:00,36.4,26.5,30.42,NW,311,1.0,1.0,67,0.00,,,0.09,WeatherCatV1.10B1784,2013-01-19 04:51:00,
2013-01-18 23:56:00,36.3,27.1,30.42,NE,34,1.0,3.0,69,0.00,,,0.09,WeatherCatV1.10B1784,2013-01-19 04:56:00,